This demonstration page uses our WeatherBlox Daily Observations layout. Learn more.

Left ArrowRight Arrow

34.74481, -87.66753

Hourly Observations for December 29, 2019

Temp ( °F °C ) Dew Point ( °F °C ) Humidity (%) Winds ( mph kmh ) Pressure ( in mb ) Visibility ( mi km ) Precip ( " mm )
12:40 am 00:40 Cloudy 68 20 62 16.7 81 81 S 14 22 29.88 1012 10 16 0.00 0.00
12:48 am 00:48 Cloudy 68 20 63 17 83 83 S 12 19 29.87 1011 10 16 0.00 0.00
12:53 am 00:53 Cloudy 68 20 63 17.2 84 84 S 12 19 29.87 1012 10 16 0.00 0.00
1:53 am 01:53 Cloudy 67 19.4 63 17.2 87 87 S 12 19 29.86 1011 10 16 0.04 1.02
2:53 am 02:53 Cloudy 67 19.4 63 17.2 87 87 S 8 13 29.86 1011 10 16 0.00 0.00
3:40 am 03:40 Cloudy 67 19.4 64 17.8 91 91 S 9 15 29.86 1011 8 13 0.00 0.00
3:50 am 03:50 Cloudy with Light Rain 66 19 64 18 94 94 SSE 10 17 29.85 1011 6 10 0.01 0.25
3:53 am 03:53 Cloudy with Light Rain 67 19.4 64 17.8 91 91 S 10 17 29.85 1011 8 13 0.01 0.25
4:03 am 04:03 Cloudy with Light Rain 67 19.4 64 17.8 91 91 S 9 15 29.85 1011 7 11 0.00 0.00
4:10 am 04:10 Cloudy with Light Rain 67 19.4 64 17.8 91 91 S 9 15 29.85 1011 10 16 0.00 0.00
4:17 am 04:17 Cloudy with Light Rain 66 18.9 64 17.8 93 93 SSE 10 17 29.84 1010 7 11 0.01 0.25
4:30 am 04:30 Cloudy with Light Rain 66 18.9 64 17.8 93 93 SSE 10 17 29.84 1010 6 10 0.04 1.02
4:37 am 04:37 Cloudy with Light Rain 66 18.9 64 17.8 93 93 S 8 13 29.84 1010 8 13 0.04 1.02
4:49 am 04:49 Cloudy with Light Rain 66 19 64 18 94 94 SSE 8 13 29.84 1010 7 11 0.05 1.27
4:53 am 04:53 Cloudy with Light Rain 66 18.9 64 17.8 93 93 S 8 13 29.84 1010 7 11 0.05 1.27
5:03 am 05:03 Cloudy with Light Rain 66 18.9 64 17.8 93 93 S 8 13 29.85 1011 8 13 0.01 0.25
5:17 am 05:17 Cloudy with Light Rain 66 18.9 64 17.8 93 93 S 9 15 29.84 1010 6 10 0.01 0.25
5:31 am 05:31 Cloudy with Light Rain 67 19.4 64 17.8 91 91 S 9 15 29.84 1010 7 11 0.02 0.51
5:53 am 05:53 Cloudy with Light Rain 66 18.9 64 17.8 93 93 S 9 15 29.85 1011 8 13 0.03 0.76
6:05 am 06:05 Cloudy 66 18.9 64 17.8 93 93 S 9 15 29.84 1010 10 16 0.00 0.00
6:53 am 06:53 Partly Cloudy 67 19.4 64 17.8 91 91 S 10 17 29.83 1010 10 16 0.00 0.00
8:35 am 08:35 Mostly Cloudy 68 20 64 17.8 87 87 S 10 17 29.85 1011 10 16 0.00 0.00
9:53 am 09:53 Cloudy 70 21.1 64 17.8 82 82 S 9 15 29.85 1011 10 16 0.00 0.00
10:53 am 10:53 Cloudy 70 21.1 64 17.8 82 82 S 10 17 29.82 1010 10 16 0.00 0.00
11:30 am 11:30 Mostly Cloudy 71 21.7 63 17.2 76 76 S 9 15 29.79 1009 10 16 0.00 0.00
11:48 am 11:48 Mostly Cloudy 72 22 63 17 73 73 S 8 13 29.77 1008 10 16 0.00 0.00
11:53 am 11:53 Mostly Cloudy 72 22.2 64 17.8 76 76 S 7 11 29.77 1008 10 16 0.00 0.00
12:22 pm 12:22 Cloudy 72 22.2 64 17.8 76 76 S 10 17 29.74 1007 10 16 0.00 0.00
12:53 pm 12:53 Cloudy with Rain 70 21.1 64 17.8 82 82 S 9 15 29.72 1006 7 11 0.00 0.00
1:53 pm 13:53 Cloudy with Light Rain 69 20.6 65 18.3 87 87 S 6 9 29.68 1005 6 10 0.04 1.02
2:10 pm 14:10 Cloudy with Heavy Rain 68 20 65 18.3 90 90 S 8 13 29.67 1005 2 3 0.08 2.03
2:19 pm 14:19 Cloudy with Heavy Rain 68 20 65 18.3 90 90 SSE 14 22 29.66 1004 2 3 0.15 3.81
2:21 pm 14:21 Cloudy with Heavy Rain 68 20 65 18.3 90 90 SSE 14 22 29.66 1004 2 3 0.15 3.81
2:28 pm 14:28 Cloudy with Heavy Rain 68 20 65 18.3 90 90 S 13 20 29.67 1005 2 3 0.23 5.84
2:44 pm 14:44 Cloudy with Heavy Rain 68 20 65 18.3 90 90 S 10 17 29.66 1004 3 5 0.37 9.40
2:53 pm 14:53 Cloudy with Rain 68 20 65 18.3 90 90 SSE 12 19 29.64 1004 3 5 0.40 10.16
3:11 pm 15:11 Cloudy with Nearby Thunderstorms 68 20 65 18.3 90 90 S 20 31 29.64 1004 3 4 0.10 2.54
3:19 pm 15:19 Cloudy with Nearby Thunderstorms 68 20 64 17.8 87 87 S 20 31 29.64 1004 2 2 0.18 4.57
3:23 pm 15:23 Cloudy with Heavy Rain 68 20 64 17.8 87 87 SSW 24 39 29.64 1004 2 3 0.19 4.83
4:00 pm 16:00 Cloudy with Heavy Rain 67 19.4 65 18.3 93 93 WSW 14 22 29.63 1003 3 4 0.05 1.27
4:07 pm 16:07 Cloudy with Rain 67 19.4 65 18.3 93 93 WSW 12 19 29.63 1003 3 5 0.07 1.78
4:21 pm 16:21 Cloudy with Strong Thunderstorms 67 19.4 65 18.3 93 93 SSW 13 20 29.62 1003 3 5 0.15 3.81
4:34 pm 16:34 Cloudy with Nearby Thunderstorms 67 19.4 65 18.3 93 93 SSW 13 20 29.64 1004 4 6 0.18 4.57
4:46 pm 16:46 Cloudy with Light Rain 67 19.4 65 18.3 93 93 WSW 7 11 29.65 1004 9 14 0.20 5.08
4:53 pm 16:53 Cloudy with Light Rain 63 17.2 60 15.6 90 90 NNW 14 22 29.62 1003 10 16 0.20 5.08
5:03 pm 17:03 Cloudy 64 17.8 60 15.6 87 87 NW 10 17 29.65 1004 10 16 0.00 0.00
5:31 pm 17:31 Cloudy with Light Rain 62 16.7 58 14.4 86 86 VRB 6 9 29.66 1005 10 16 0.00 0.00
5:53 pm 17:53 Cloudy with Light Rain 61 16.1 58 14.4 90 90 N 6 9 29.64 1004 10 16 0.03 0.76
6:04 pm 18:04 Cloudy with Nearby Thunderstorms 61 16.1 58 14.4 90 90 ENE 6 9 29.64 1004 10 16 0.00 0.00
6:15 pm 18:15 Cloudy with Heavy Rain 61 16.1 58 14.4 90 90 W 21 33 29.72 1006 2 3 0.21 5.33
6:23 pm 18:23 Cloudy with Nearby Thunderstorms 60 15.6 58 14.4 93 93 WNW 9 15 29.67 1005 2 3 0.25 6.35
6:30 pm 18:30 Cloudy with Nearby Thunderstorms 60 15.6 58 14.4 93 93 VRB 3 6 29.66 1004 5 8 0.28 7.11
6:41 pm 18:41 Cloudy with Heavy Rain 60 15.6 58 14.4 93 93 Calm 29.66 1004 5 8 0.32 8.13
6:53 pm 18:53 Mostly Cloudy with Light Rain 60 15.6 57 13.9 90 90 Calm 29.65 1004 10 16 0.33 8.38
8:39 pm 20:39 Cloudy 60 15.6 57 13.9 90 90 W 13 20 29.68 1005 10 16 0.00 0.00
8:53 pm 20:53 Cloudy 60 15.6 57 13.9 90 90 W 17 28 29.68 1005 10 16 0.00 0.00
9:53 pm 21:53 Cloudy 56 13.3 52 11.1 87 87 W 20 31 29.72 1007 10 16 0.00 0.00
10:53 pm 22:53 Partly Cloudy 54 12.2 50 10 87 87 W 13 20 29.76 1008 10 16 0.00 0.00
11:53 pm 23:53 Clear 53 11.7 47 8.3 80 80 W 14 22 29.77 1008 10 16 0.00 0.00

Powered by AerisWeather